ASL123 ULLI-LYBE

Flight info

Callsign ASL123
Flight time N/A
Altitude 36000
Route ULLI/28R TURAL L870 RESMO DCT ERIVA DCT BOKSU M985 EVINA/N0447F370 DCT KELEL DCT PARAK DCT TISAK
Aircraft A320/M-SDE3FGHIRWY/LB1

Departure

Time N/A
Airport Pulkovo Airport (ULLI)

Arrival

Time 2026-05-05 20:14
Airport Belgrade Nikola Tesla Airport (LYBE)
Time Latitude Longitude Altitude Speed Heading
2026-05-05 19:41 48.25833 20.14691 35902 ft 451 kts 182°
2026-05-05 19:41 48.19553 20.14526 35899 ft 451 kts 182°
2026-05-05 19:42 48.13303 20.14362 35901 ft 451 kts 182°
2026-05-05 19:42 48.07038 20.14198 35902 ft 451 kts 182°
2026-05-05 19:43 48.00771 20.14037 35902 ft 452 kts 182°
2026-05-05 19:43 47.94498 20.13875 35899 ft 452 kts 182°
2026-05-05 19:44 47.88206 20.13710 35899 ft 452 kts 182°
2026-05-05 19:44 47.81897 20.13549 35898 ft 453 kts 182°
2026-05-05 19:45 47.75647 20.13389 35896 ft 453 kts 182°
2026-05-05 19:45 47.69325 20.13227 35896 ft 453 kts 182°
2026-05-05 19:46 47.63050 20.13066 35898 ft 454 kts 182°
2026-05-05 19:46 47.56750 20.12905 35904 ft 454 kts 182°
2026-05-05 19:47 47.50426 20.12743 35901 ft 454 kts 182°
2026-05-05 19:47 47.44132 20.12582 35902 ft 454 kts 182°
2026-05-05 19:48 47.37833 20.12423 35902 ft 454 kts 182°
2026-05-05 19:48 47.31498 20.12263 35903 ft 455 kts 182°
2026-05-05 19:49 47.25170 20.12103 35903 ft 456 kts 182°
2026-05-05 19:49 47.18823 20.11943 35902 ft 456 kts 182°
2026-05-05 19:50 47.12499 20.11784 35900 ft 456 kts 182°
2026-05-05 19:50 47.06160 20.11624 35902 ft 455 kts 182°
2026-05-05 19:51 46.99835 20.11465 35904 ft 456 kts 182°
2026-05-05 19:51 46.93509 20.11306 35902 ft 457 kts 182°
2026-05-05 19:52 46.87163 20.11150 35901 ft 457 kts 182°
2026-05-05 19:52 46.80828 20.10994 35902 ft 458 kts 182°
2026-05-05 19:53 46.74455 20.10838 35898 ft 457 kts 182°
2026-05-05 19:53 46.68123 20.10682 35900 ft 457 kts 182°
2026-05-05 19:54 46.61780 20.10528 35901 ft 457 kts 182°
2026-05-05 19:54 46.55406 20.10371 35904 ft 457 kts 182°
2026-05-05 19:55 46.49056 20.10215 35905 ft 458 kts 182°
2026-05-05 19:55 46.42689 20.10060 35902 ft 458 kts 182°
2026-05-05 19:56 46.36321 20.09908 35893 ft 457 kts 182°
2026-05-05 19:56 46.33171 20.09833 35651 ft 455 kts 182°
2026-05-05 19:56 46.29982 20.09759 35011 ft 456 kts 182°
2026-05-05 19:56 46.26829 20.09685 34058 ft 461 kts 182°
2026-05-05 19:57 46.23620 20.09609 33010 ft 466 kts 183°
2026-05-05 19:57 46.21469 20.09558 32330 ft 468 kts 183°
2026-05-05 19:57 46.17074 20.09581 30945 ft 472 kts 180°
2026-05-05 19:57 46.13803 20.09898 29896 ft 476 kts 176°
2026-05-05 19:58 46.10476 20.10468 28923 ft 476 kts 174°
2026-05-05 19:58 46.07231 20.11058 28087 ft 474 kts 174°
2026-05-05 19:58 46.03996 20.11648 27259 ft 471 kts 174°
2026-05-05 19:58 46.00741 20.12241 26394 ft 470 kts 174°
2026-05-05 19:59 45.97496 20.12830 25684 ft 464 kts 174°
2026-05-05 19:59 45.94315 20.13407 25175 ft 458 kts 174°
2026-05-05 19:59 45.91200 20.13970 24639 ft 454 kts 174°
2026-05-05 19:59 45.88085 20.14532 24085 ft 450 kts 174°
2026-05-05 20:00 45.84998 20.15087 23537 ft 446 kts 174°
2026-05-05 20:00 45.81930 20.15638 22973 ft 441 kts 174°
2026-05-05 20:00 45.78909 20.16135 22439 ft 437 kts 177°
2026-05-05 20:00 45.75885 20.16224 21904 ft 433 kts 183°
2026-05-05 20:01 45.72894 20.15981 21372 ft 428 kts 185°
2026-05-05 20:01 45.69934 20.15660 20838 ft 424 kts 186°
2026-05-05 20:01 45.67014 20.15325 20306 ft 420 kts 186°
2026-05-05 20:01 45.64120 20.14988 19779 ft 416 kts 186°
2026-05-05 20:02 45.61277 20.14654 19257 ft 412 kts 186°
2026-05-05 20:02 45.58414 20.14317 18726 ft 408 kts 186°
2026-05-05 20:02 45.55602 20.13985 18197 ft 405 kts 186°
2026-05-05 20:02 45.52813 20.13651 17680 ft 401 kts 186°
2026-05-05 20:03 45.50050 20.13312 17160 ft 396 kts 186°
2026-05-05 20:03 45.47305 20.12968 16586 ft 393 kts 186°
2026-05-05 20:03 45.44567 20.12616 15783 ft 394 kts 186°
2026-05-05 20:03 45.41865 20.12256 15047 ft 393 kts 186°
2026-05-05 20:04 45.39187 20.11888 14282 ft 391 kts 186°
2026-05-05 20:04 45.36452 20.11498 13474 ft 389 kts 186°
2026-05-05 20:04 45.33831 20.11114 12685 ft 373 kts 186°
2026-05-05 20:04 45.31294 20.10747 11821 ft 357 kts 186°
2026-05-05 20:05 45.28897 20.10409 10958 ft 342 kts 186°
2026-05-05 20:05 45.26610 20.10092 10102 ft 330 kts 186°
2026-05-05 20:05 45.24359 20.09784 9337 ft 320 kts 186°
2026-05-05 20:05 45.22154 20.09484 8861 ft 313 kts 186°
2026-05-05 20:06 45.20036 20.09195 8380 ft 303 kts 186°
2026-05-05 20:06 45.17992 20.08914 7910 ft 288 kts 186°
2026-05-05 20:06 45.16028 20.08641 7429 ft 274 kts 186°
2026-05-05 20:06 45.14188 20.08380 6968 ft 266 kts 186°
2026-05-05 20:07 45.12359 20.08113 6501 ft 264 kts 186°
2026-05-05 20:07 45.10529 20.07839 6032 ft 266 kts 186°
2026-05-05 20:07 45.08694 20.07564 5562 ft 268 kts 186°
2026-05-05 20:07 45.06835 20.07296 4999 ft 263 kts 186°
2026-05-05 20:08 45.05030 20.07052 4450 ft 257 kts 186°
2026-05-05 20:08 45.03279 20.06828 4049 ft 246 kts 186°
2026-05-05 20:08 45.01619 20.06625 3878 ft 241 kts 186°
2026-05-05 20:08 44.99937 20.06425 3702 ft 240 kts 186°
2026-05-05 20:09 44.98279 20.06229 3533 ft 241 kts 186°
2026-05-05 20:09 44.96599 20.06029 3358 ft 241 kts 186°
2026-05-05 20:09 44.94917 20.05864 3181 ft 242 kts 180°
2026-05-05 20:09 44.93282 20.06387 3025 ft 242 kts 159°
2026-05-05 20:10 44.91929 20.07658 2947 ft 231 kts 129°
2026-05-05 20:10 44.91118 20.09480 2947 ft 209 kts 120°
2026-05-05 20:10 44.90431 20.11237 2991 ft 203 kts 120°
2026-05-05 20:10 44.89756 20.12898 3017 ft 186 kts 121°
2026-05-05 20:11 44.89131 20.14374 2953 ft 163 kts 122°
2026-05-05 20:11 44.88562 20.15735 2663 ft 163 kts 122°
2026-05-05 20:11 44.87983 20.17089 2307 ft 159 kts 123°
2026-05-05 20:11 44.87417 20.18381 2047 ft 149 kts 123°
2026-05-05 20:12 44.86879 20.19593 1850 ft 143 kts 123°
2026-05-05 20:12 44.86347 20.20787 1678 ft 143 kts 123°
2026-05-05 20:12 44.85867 20.21865 1517 ft 143 kts 123°
2026-05-05 20:12 44.85337 20.23057 1335 ft 142 kts 122°
2026-05-05 20:13 44.84820 20.24227 1152 ft 140 kts 122°
2026-05-05 20:13 44.84314 20.25381 945 ft 139 kts 122°
2026-05-05 20:13 44.83797 20.26526 760 ft 138 kts 122°
2026-05-05 20:13 44.83283 20.27671 573 ft 136 kts 122°
2026-05-05 20:14 44.82785 20.28794 421 ft 136 kts 121°
2026-05-05 20:14 44.82306 20.29885 342 ft 114 kts 121°
2026-05-05 20:14 44.82027 20.30483 342 ft 40 kts 134°
2026-05-05 20:14 44.81858 20.30652 342 ft 17 kts 148°
2026-05-05 20:15 44.81800 20.30700 342 ft 0 kts 150°
2026-05-05 20:15 44.81793 20.30706 342 ft 4 kts 150°
2026-05-05 20:15 44.81744 20.30709 342 ft 9 kts 232°
2026-05-05 20:15 44.81775 20.30627 342 ft 11 kts 314°
2026-05-05 20:16 44.81820 20.30532 342 ft 13 kts 300°
2026-05-05 20:16 44.81878 20.30398 342 ft 18 kts 301°
2026-05-05 20:16 44.81953 20.30225 342 ft 22 kts 301°
2026-05-05 20:16 44.82045 20.30017 342 ft 25 kts 302°
2026-05-05 20:17 44.82140 20.29809 342 ft 24 kts 302°
2026-05-05 20:17 44.82204 20.29664 342 ft 12 kts 296°
2026-05-05 20:17 44.82174 20.29594 342 ft 10 kts 214°
2026-05-05 20:17 44.82113 20.29536 342 ft 11 kts 212°
2026-05-05 20:18 44.82061 20.29485 342 ft 2 kts 263°
2026-05-05 20:18 44.82087 20.29453 342 ft 6 kts 322°
2026-05-05 20:18 44.82121 20.29390 342 ft 9 kts 301°
2026-05-05 20:18 44.82161 20.29300 342 ft 11 kts 301°
2026-05-05 20:19 44.82177 20.29238 342 ft 5 kts 230°
2026-05-05 20:19 44.82140 20.29205 342 ft 5 kts 211°
2026-05-05 20:19 44.82132 20.29198 342 ft 0 kts 211°